UAL2340 KSEA-KORD

Flight info

Callsign UAL2340
Flight time 3h 19m
Altitude 37000
Route MONTN2 SEA NORMY J90 HLN RECAP DPR J16 FSD ZZIPR FYTTE7
Aircraft B38M/M-SDE1FGHILORVWXY/HB1

Departure

Time 2026-05-05 22:13
Airport Seattle–Tacoma International Airport (KSEA)

Arrival

Time 2026-05-06 01:33
Airport Chicago O'Hare International Airport (KORD)
Time Latitude Longitude Altitude Speed Heading
2026-05-05 21:39 47.44126 -122.30447 391 ft 0 kts 90°
2026-05-05 21:59 47.44126 -122.30451 391 ft 2 kts 90°
2026-05-05 21:59 47.44127 -122.30475 390 ft 2 kts 90°
2026-05-05 21:59 47.44127 -122.30499 390 ft 2 kts 90°
2026-05-05 21:59 47.44127 -122.30523 390 ft 2 kts 90°
2026-05-05 22:00 47.44127 -122.30547 390 ft 2 kts 72°
2026-05-05 22:00 47.44124 -122.30555 390 ft 0 kts 33°
2026-05-05 22:03 47.44127 -122.30552 390 ft 2 kts 32°
2026-05-05 22:03 47.44172 -122.30542 391 ft 11 kts 360°
2026-05-05 22:04 47.44261 -122.30542 391 ft 12 kts 360°
2026-05-05 22:04 47.44336 -122.30560 396 ft 10 kts 314°
2026-05-05 22:04 47.44385 -122.30631 396 ft 10 kts 350°
2026-05-05 22:04 47.44458 -122.30632 398 ft 10 kts
2026-05-05 22:05 47.44529 -122.30632 400 ft 10 kts
2026-05-05 22:05 47.44597 -122.30632 402 ft 9 kts
2026-05-05 22:05 47.44661 -122.30631 401 ft 9 kts
2026-05-05 22:05 47.44722 -122.30630 405 ft 9 kts
2026-05-05 22:06 47.44783 -122.30629 406 ft 9 kts
2026-05-05 22:06 47.44848 -122.30628 409 ft 11 kts
2026-05-05 22:06 47.44952 -122.30628 405 ft 18 kts
2026-05-05 22:06 47.45076 -122.30628 416 ft 17 kts 360°
2026-05-05 22:07 47.45194 -122.30627 415 ft 16 kts
2026-05-05 22:07 47.45300 -122.30625 422 ft 14 kts
2026-05-05 22:07 47.45394 -122.30624 426 ft 13 kts
2026-05-05 22:07 47.45479 -122.30623 427 ft 12 kts
2026-05-05 22:08 47.45559 -122.30623 434 ft 11 kts
2026-05-05 22:08 47.45635 -122.30622 435 ft 11 kts
2026-05-05 22:08 47.45710 -122.30622 432 ft 11 kts
2026-05-05 22:08 47.45790 -122.30621 437 ft 12 kts
2026-05-05 22:09 47.45877 -122.30621 432 ft 13 kts
2026-05-05 22:09 47.45967 -122.30620 437 ft 13 kts
2026-05-05 22:09 47.46058 -122.30618 435 ft 14 kts
2026-05-05 22:09 47.46160 -122.30616 438 ft 15 kts
2026-05-05 22:10 47.46259 -122.30615 439 ft 12 kts
2026-05-05 22:10 47.46323 -122.30614 438 ft 6 kts
2026-05-05 22:10 47.46354 -122.30624 438 ft 3 kts 320°
2026-05-05 22:10 47.46360 -122.30636 440 ft 1 kts 300°
2026-05-05 22:11 47.46361 -122.30638 440 ft 0 kts 300°
2026-05-05 22:12 47.46363 -122.30643 445 ft 2 kts 300°
2026-05-05 22:12 47.46373 -122.30670 436 ft 4 kts 295°
2026-05-05 22:12 47.46371 -122.30716 441 ft 6 kts 258°
2026-05-05 22:12 47.46353 -122.30772 444 ft 4 kts 212°
2026-05-05 22:13 47.46288 -122.30778 438 ft 27 kts 180°
2026-05-05 22:13 47.45851 -122.30784 431 ft 104 kts 180°
2026-05-05 22:13 47.44898 -122.30790 438 ft 169 kts 181°
2026-05-05 22:13 47.43701 -122.30760 1094 ft 186 kts 181°
2026-05-05 22:14 47.42375 -122.30855 1868 ft 199 kts 192°
2026-05-05 22:14 47.40992 -122.31342 2519 ft 211 kts 185°
2026-05-05 22:14 47.39470 -122.31270 3281 ft 226 kts 177°
2026-05-05 22:14 47.37841 -122.31145 3931 ft 241 kts 177°
2026-05-05 22:15 47.36133 -122.31001 4562 ft 250 kts 176°
2026-05-05 22:15 47.34395 -122.30669 5213 ft 257 kts 160°
2026-05-05 22:15 47.32866 -122.29347 5851 ft 258 kts 134°
2026-05-05 22:15 47.31852 -122.27179 6484 ft 259 kts 108°
2026-05-05 22:16 47.31576 -122.24513 6809 ft 269 kts 81°
2026-05-05 22:16 47.32138 -122.21908 6908 ft 268 kts 64°
2026-05-05 22:16 47.32787 -122.19298 6951 ft 274 kts 69°
2026-05-05 22:16 47.33380 -122.16616 6998 ft 276 kts 70°
2026-05-05 22:17 47.33969 -122.13928 6996 ft 275 kts 69°
2026-05-05 22:17 47.34555 -122.11238 6991 ft 275 kts 70°
2026-05-05 22:17 47.35138 -122.08551 6982 ft 275 kts 69°
2026-05-05 22:17 47.35721 -122.05865 6991 ft 276 kts 70°
2026-05-05 22:18 47.36303 -122.03175 6993 ft 275 kts 70°
2026-05-05 22:18 47.36887 -122.00479 6999 ft 275 kts 69°
2026-05-05 22:18 47.37464 -121.97800 7528 ft 276 kts 69°
2026-05-05 22:18 47.38056 -121.95059 8184 ft 284 kts 70°
2026-05-05 22:19 47.38652 -121.92282 8790 ft 287 kts 70°
2026-05-05 22:19 47.39258 -121.89458 9445 ft 291 kts 69°
2026-05-05 22:19 47.39872 -121.86601 10091 ft 293 kts 69°
2026-05-05 22:19 47.40489 -121.83726 10671 ft 295 kts 69°
2026-05-05 22:20 47.41110 -121.80828 11265 ft 296 kts 69°
2026-05-05 22:20 47.41746 -121.77867 11739 ft 313 kts 69°
2026-05-05 22:20 47.42424 -121.74703 12099 ft 333 kts 69°
2026-05-05 22:20 47.42951 -121.71261 12363 ft 358 kts 83°
2026-05-05 22:21 47.42922 -121.67488 12767 ft 375 kts 88°
2026-05-05 22:21 47.42863 -121.63582 13286 ft 385 kts 88°
2026-05-05 22:21 47.42803 -121.59619 14121 ft 386 kts 88°
2026-05-05 22:21 47.42748 -121.55655 14723 ft 390 kts 87°
2026-05-05 22:22 47.42694 -121.51640 15343 ft 394 kts 87°
2026-05-05 22:22 47.42636 -121.47564 15935 ft 398 kts 87°
2026-05-05 22:22 47.42576 -121.43487 16585 ft 400 kts 87°
2026-05-05 22:22 47.42514 -121.39372 17158 ft 404 kts 86°
2026-05-05 22:23 47.42449 -121.35203 17791 ft 408 kts 86°
2026-05-05 22:23 47.42383 -121.30993 18293 ft 412 kts 86°
2026-05-05 22:23 47.42313 -121.26766 18840 ft 413 kts 86°
2026-05-05 22:23 47.42244 -121.22521 19261 ft 420 kts 86°
2026-05-05 22:24 47.42167 -121.18221 19818 ft 421 kts 86°
2026-05-05 22:24 47.42094 -121.13880 20311 ft 425 kts 86°
2026-05-05 22:24 47.42018 -121.09515 20815 ft 427 kts 85°
2026-05-05 22:24 47.41938 -121.05110 21341 ft 429 kts 85°
2026-05-05 22:25 47.41856 -121.00699 21791 ft 433 kts 85°
2026-05-05 22:25 47.41772 -120.96232 22309 ft 436 kts 85°
2026-05-05 22:25 47.41686 -120.91730 22770 ft 440 kts 85°
2026-05-05 22:25 47.41593 -120.87203 23241 ft 443 kts 85°
2026-05-05 22:26 47.41505 -120.82676 23682 ft 446 kts 85°
2026-05-05 22:26 47.41413 -120.78080 24094 ft 449 kts 85°
2026-05-05 22:26 47.41312 -120.73457 24583 ft 453 kts 85°
2026-05-05 22:26 47.41215 -120.68792 24938 ft 456 kts 85°
2026-05-05 22:27 47.41115 -120.64102 25284 ft 459 kts 85°
2026-05-05 22:27 47.41005 -120.59371 25598 ft 462 kts 85°
2026-05-05 22:27 47.40902 -120.54633 26022 ft 463 kts 85°
2026-05-05 22:27 47.40796 -120.49870 26374 ft 466 kts 85°
2026-05-05 22:28 47.40686 -120.45086 26742 ft 469 kts 85°
2026-05-05 22:28 47.40365 -120.40252 27051 ft 480 kts 96°
2026-05-05 22:28 47.39526 -120.35478 27571 ft 481 kts 98°
2026-05-05 22:28 47.38971 -120.32308 27746 ft 484 kts 98°
2026-05-05 22:29 47.37850 -120.25847 28187 ft 487 kts 97°
2026-05-05 22:29 47.37295 -120.22641 28459 ft 488 kts 98°
2026-05-05 22:29 47.36457 -120.17818 28922 ft 487 kts 98°
2026-05-05 22:29 47.35614 -120.12984 29408 ft 486 kts 98°
2026-05-05 22:30 47.34781 -120.08219 29854 ft 485 kts 98°
2026-05-05 22:30 47.33938 -120.03406 30222 ft 485 kts 98°
2026-05-05 22:30 47.33093 -119.98601 30620 ft 484 kts 98°
2026-05-05 22:30 47.32248 -119.93802 31003 ft 483 kts 98°
2026-05-05 22:31 47.31402 -119.89019 31387 ft 482 kts 98°
2026-05-05 22:31 47.30556 -119.84241 31788 ft 481 kts 98°
2026-05-05 22:31 47.29709 -119.79478 32193 ft 480 kts 97°
2026-05-05 22:31 47.28868 -119.74749 32546 ft 479 kts 98°
2026-05-05 22:32 47.28021 -119.70002 32916 ft 479 kts 98°
2026-05-05 22:32 47.27172 -119.65263 33267 ft 478 kts 98°
2026-05-05 22:32 47.26325 -119.60541 33617 ft 478 kts 98°
2026-05-05 22:32 47.25474 -119.55816 33963 ft 477 kts 98°
2026-05-05 22:33 47.24623 -119.51102 34262 ft 476 kts 98°
2026-05-05 22:33 47.23771 -119.46389 34546 ft 476 kts 98°
2026-05-05 22:33 47.22919 -119.41691 34824 ft 476 kts 98°
2026-05-05 22:33 47.22069 -119.37008 35085 ft 476 kts 97°
2026-05-05 22:34 47.21250 -119.32310 35388 ft 471 kts 92°
2026-05-05 22:34 47.20961 -119.27589 35684 ft 460 kts 84°
2026-05-05 22:34 47.20730 -119.22864 35832 ft 465 kts 87°
2026-05-05 22:34 47.20451 -119.18142 36096 ft 463 kts 86°
2026-05-05 22:35 47.20190 -119.13408 36313 ft 464 kts 86°
2026-05-05 22:35 47.19942 -119.08693 36537 ft 463 kts 86°
2026-05-05 22:35 47.19698 -119.03971 36766 ft 463 kts 86°
2026-05-05 22:35 47.19456 -118.99277 36925 ft 463 kts 86°
2026-05-05 22:36 47.19210 -118.94556 36929 ft 463 kts 86°
2026-05-05 22:36 47.18712 -118.85147 36931 ft 461 kts 86°
2026-05-05 22:37 47.18207 -118.75746 36932 ft 461 kts 86°
2026-05-05 22:37 47.17697 -118.66375 36935 ft 461 kts 86°
2026-05-05 22:38 47.17180 -118.57047 36924 ft 460 kts 86°
2026-05-05 22:38 47.16654 -118.47681 36936 ft 460 kts 86°
2026-05-05 22:39 47.16120 -118.38301 36934 ft 460 kts 86°
2026-05-05 22:39 47.15579 -118.28948 36956 ft 460 kts 86°
2026-05-05 22:40 47.15030 -118.19585 36933 ft 460 kts 86°
2026-05-05 22:40 47.14473 -118.10218 36938 ft 460 kts 86°
2026-05-05 22:41 47.13910 -118.00846 36934 ft 461 kts 86°
2026-05-05 22:41 47.13335 -117.91492 36950 ft 461 kts 86°
2026-05-05 22:42 47.12754 -117.82128 36970 ft 460 kts 86°
2026-05-05 22:42 47.12165 -117.72762 36938 ft 461 kts 86°
2026-05-05 22:43 47.11568 -117.63388 36937 ft 461 kts 86°
2026-05-05 22:43 47.10964 -117.54029 36943 ft 461 kts 86°
2026-05-05 22:44 47.10351 -117.44660 36958 ft 461 kts 86°
2026-05-05 22:44 47.09736 -117.35360 36959 ft 461 kts 86°
2026-05-05 22:45 47.09103 -117.25928 36967 ft 461 kts 86°
2026-05-05 22:45 47.08474 -117.16646 36968 ft 461 kts 86°
2026-05-05 22:46 47.07831 -117.07288 36980 ft 461 kts 86°
2026-05-05 22:46 47.07181 -116.97934 36972 ft 461 kts 86°
2026-05-05 22:47 47.06523 -116.88584 36945 ft 461 kts 86°
2026-05-05 22:47 47.05859 -116.79253 36987 ft 461 kts 86°
2026-05-05 22:48 47.05185 -116.69905 36914 ft 460 kts 86°
2026-05-05 22:48 47.04505 -116.60555 36930 ft 462 kts 86°
2026-05-05 22:49 47.03816 -116.51204 36930 ft 461 kts 86°
2026-05-05 22:49 47.03126 -116.41958 36915 ft 460 kts 86°
2026-05-05 22:50 47.02421 -116.32586 36949 ft 460 kts 86°
2026-05-05 22:50 47.01712 -116.23288 36878 ft 458 kts 86°
2026-05-05 22:51 47.01003 -116.14074 36893 ft 459 kts 86°
2026-05-05 22:51 47.00279 -116.04755 36884 ft 458 kts 86°
2026-05-05 22:52 46.99554 -115.95541 36893 ft 460 kts 86°
2026-05-05 22:52 46.98816 -115.86259 36898 ft 459 kts 86°
2026-05-05 22:53 46.98069 -115.76960 36897 ft 460 kts 85°
2026-05-05 22:53 46.97316 -115.67683 36897 ft 459 kts 86°
2026-05-05 22:54 46.96556 -115.58415 36919 ft 459 kts 85°
2026-05-05 22:54 46.95789 -115.49134 36917 ft 458 kts 85°
2026-05-05 22:55 46.95014 -115.39880 36911 ft 457 kts 85°
2026-05-05 22:55 46.94234 -115.30634 36924 ft 460 kts 85°
2026-05-05 22:56 46.93441 -115.21383 37084 ft 457 kts 85°
2026-05-05 22:56 46.93049 -115.16746 36940 ft 461 kts 86°
2026-05-05 22:56 46.92645 -115.12099 36925 ft 460 kts 85°
2026-05-05 22:57 46.91835 -115.02786 36943 ft 462 kts 85°
2026-05-05 22:57 46.91019 -114.93488 36994 ft 462 kts 86°
2026-05-05 22:58 46.90183 -114.84212 36921 ft 458 kts 85°
2026-05-05 22:58 46.89372 -114.74984 37011 ft 458 kts 85°
2026-05-05 22:59 46.88540 -114.65763 36975 ft 461 kts 85°
2026-05-05 22:59 46.87688 -114.56420 36969 ft 461 kts 85°
2026-05-05 23:00 46.86408 -114.42535 36998 ft 462 kts 86°
2026-05-05 23:00 46.85541 -114.33225 37071 ft 464 kts 85°
2026-05-05 23:01 46.84663 -114.23916 37055 ft 464 kts 86°
2026-05-05 23:01 46.83776 -114.14563 37033 ft 465 kts 86°
2026-05-05 23:02 46.82881 -114.05215 37044 ft 465 kts 86°
2026-05-05 23:02 46.81977 -113.95859 37050 ft 465 kts 86°
2026-05-05 23:03 46.81069 -113.86534 37072 ft 465 kts 86°
2026-05-05 23:03 46.80147 -113.77149 37037 ft 469 kts 86°
2026-05-05 23:04 46.79214 -113.67751 37071 ft 467 kts 86°
2026-05-05 23:04 46.78274 -113.58371 37039 ft 466 kts 87°
2026-05-05 23:05 46.77333 -113.49031 37067 ft 466 kts 87°
2026-05-05 23:05 46.76380 -113.39641 37054 ft 469 kts 87°
2026-05-05 23:06 46.75413 -113.30207 37056 ft 472 kts 88°
2026-05-05 23:06 46.74435 -113.20756 37110 ft 473 kts 88°
2026-05-05 23:07 46.73448 -113.11310 37115 ft 471 kts 88°
2026-05-05 23:07 46.72456 -113.01864 37115 ft 471 kts 88°
2026-05-05 23:08 46.71455 -112.92426 37129 ft 471 kts 88°
2026-05-05 23:08 46.70448 -112.82996 37157 ft 473 kts 88°
2026-05-05 23:09 46.69427 -112.73517 37159 ft 473 kts 88°
2026-05-05 23:09 46.68398 -112.64044 37165 ft 474 kts 88°
2026-05-05 23:10 46.67360 -112.54561 37173 ft 475 kts 88°
2026-05-05 23:10 46.66317 -112.45079 37178 ft 474 kts 89°
2026-05-05 23:11 46.65268 -112.35613 37175 ft 474 kts 89°
2026-05-05 23:11 46.64211 -112.26150 37163 ft 474 kts 89°
2026-05-05 23:12 46.63148 -112.16701 37155 ft 474 kts 89°
2026-05-05 23:12 46.62078 -112.07262 37137 ft 474 kts 89°
2026-05-05 23:13 46.60998 -111.97802 37134 ft 474 kts 89°
2026-05-05 23:13 46.59797 -111.88345 37147 ft 477 kts 90°
2026-05-05 23:14 46.58608 -111.78932 37148 ft 477 kts 90°
2026-05-05 23:14 46.57412 -111.69480 37157 ft 477 kts 90°
2026-05-05 23:15 46.56204 -111.59998 37152 ft 477 kts 90°
2026-05-05 23:15 46.55183 -111.52046 37171 ft 478 kts 91°
2026-05-05 23:16 46.53957 -111.42542 37210 ft 479 kts 91°
2026-05-05 23:16 46.52731 -111.33117 37150 ft 479 kts 91°
2026-05-05 23:17 46.51487 -111.23608 37170 ft 480 kts 91°
2026-05-05 23:17 46.50232 -111.14094 37158 ft 479 kts 91°
2026-05-05 23:18 46.48975 -111.04611 37143 ft 480 kts 91°
2026-05-05 23:18 46.47707 -110.95107 37193 ft 481 kts 92°
2026-05-05 23:19 46.46424 -110.85575 37156 ft 482 kts 92°
2026-05-05 23:19 46.45122 -110.75958 37143 ft 482 kts 92°
2026-05-05 23:20 46.43826 -110.66438 37149 ft 483 kts 92°
2026-05-05 23:20 46.42517 -110.56898 37147 ft 483 kts 92°
2026-05-05 23:21 46.41209 -110.47411 37214 ft 483 kts 93°
2026-05-05 23:21 46.39882 -110.37870 37145 ft 483 kts 93°
2026-05-05 23:22 46.38552 -110.28352 37147 ft 484 kts 94°
2026-05-05 23:22 46.37206 -110.18790 37150 ft 485 kts 94°
2026-05-05 23:23 46.35850 -110.09220 37137 ft 484 kts 94°
2026-05-05 23:23 46.34490 -109.99668 37142 ft 485 kts 94°
2026-05-05 23:24 46.33124 -109.90148 37116 ft 484 kts 94°
2026-05-05 23:24 46.31746 -109.80602 37115 ft 485 kts 94°
2026-05-05 23:25 46.30359 -109.71053 37096 ft 485 kts 94°
2026-05-05 23:25 46.28968 -109.61532 37100 ft 485 kts 95°
2026-05-05 23:26 46.27565 -109.51986 37131 ft 486 kts 95°
2026-05-05 23:26 46.26154 -109.42458 37081 ft 484 kts 95°
2026-05-05 23:27 46.24734 -109.32917 37091 ft 485 kts 95°
2026-05-05 23:27 46.23311 -109.23419 37090 ft 485 kts 95°
2026-05-05 23:28 46.21891 -109.13999 37107 ft 485 kts 96°
2026-05-05 23:28 46.20440 -109.04414 37123 ft 485 kts 96°
2026-05-05 23:29 46.19000 -108.94973 37106 ft 486 kts 96°
2026-05-05 23:29 46.17541 -108.85466 37107 ft 486 kts 97°
2026-05-05 23:30 46.16071 -108.75941 37110 ft 486 kts 97°
2026-05-05 23:30 46.14594 -108.66424 37116 ft 487 kts 97°
2026-05-05 23:31 46.13112 -108.56924 37135 ft 486 kts 97°
2026-05-05 23:31 46.11620 -108.47437 37122 ft 485 kts 97°
2026-05-05 23:32 46.10121 -108.37947 37120 ft 486 kts 97°
2026-05-05 23:32 46.08613 -108.28452 37125 ft 487 kts 98°
2026-05-05 23:33 46.07098 -108.18972 37134 ft 487 kts 98°
2026-05-05 23:33 46.05569 -108.09453 37149 ft 488 kts 98°
2026-05-05 23:34 46.04033 -107.99957 37131 ft 487 kts 98°
2026-05-05 23:34 46.02490 -107.90459 37126 ft 487 kts 99°
2026-05-05 23:35 46.00946 -107.81013 37135 ft 488 kts 99°
2026-05-05 23:35 45.99394 -107.71572 37125 ft 488 kts 99°
2026-05-05 23:36 45.97826 -107.62080 37141 ft 489 kts 99°
2026-05-05 23:36 45.96246 -107.52580 37131 ft 488 kts 99°
2026-05-05 23:37 45.94668 -107.43137 37132 ft 488 kts 99°
2026-05-05 23:37 45.93063 -107.33587 37134 ft 488 kts 99°
2026-05-05 23:38 45.91463 -107.24122 37138 ft 488 kts 100°
2026-05-05 23:38 45.89857 -107.14663 37139 ft 489 kts 100°
2026-05-05 23:39 45.88236 -107.05178 37132 ft 490 kts 101°
2026-05-05 23:39 45.86614 -106.95739 37140 ft 491 kts 101°
2026-05-05 23:40 45.84978 -106.86262 37137 ft 491 kts 101°
2026-05-05 23:40 45.83332 -106.76788 37138 ft 491 kts 101°
2026-05-05 23:41 45.81685 -106.67347 37124 ft 491 kts 101°
2026-05-05 23:41 45.80012 -106.57814 37134 ft 491 kts 101°
2026-05-05 23:42 45.78385 -106.48593 37137 ft 491 kts 101°
2026-05-05 23:42 45.76709 -106.39134 37125 ft 492 kts 102°
2026-05-05 23:43 45.75012 -106.29618 37127 ft 493 kts 102°
2026-05-05 23:43 45.73309 -106.20115 37130 ft 493 kts 102°
2026-05-05 23:44 45.71602 -106.10636 37130 ft 493 kts 102°
2026-05-05 23:44 45.69880 -106.01128 37125 ft 493 kts 102°
2026-05-05 23:45 45.68152 -105.91635 37115 ft 493 kts 102°
2026-05-05 23:45 45.66416 -105.82147 37140 ft 493 kts 102°
2026-05-05 23:46 45.64675 -105.72676 37119 ft 493 kts 102°
2026-05-05 23:46 45.62922 -105.63193 37118 ft 494 kts 102°
2026-05-05 23:47 45.61162 -105.53718 37115 ft 494 kts 103°
2026-05-05 23:47 45.59393 -105.44244 37115 ft 494 kts 103°
2026-05-05 23:48 45.57621 -105.34804 37112 ft 494 kts 103°
2026-05-05 23:48 45.55840 -105.25346 37115 ft 494 kts 103°
2026-05-05 23:49 45.54050 -105.15883 37104 ft 494 kts 103°
2026-05-05 23:49 45.52253 -105.06432 37109 ft 495 kts 103°
2026-05-05 23:50 45.50455 -104.97017 37109 ft 495 kts 103°
2026-05-05 23:50 45.48626 -104.87484 37111 ft 496 kts 103°
2026-05-05 23:51 45.46798 -104.78006 37104 ft 496 kts 103°
2026-05-05 23:51 45.44969 -104.68563 37105 ft 496 kts 104°
2026-05-05 23:52 45.43584 -104.58973 37093 ft 494 kts 97°
2026-05-05 23:52 45.42456 -104.49363 37123 ft 497 kts 97°
2026-05-05 23:53 45.41357 -104.39611 37103 ft 498 kts 97°
2026-05-05 23:53 45.40265 -104.29944 37104 ft 498 kts 97°
2026-05-05 23:54 45.39155 -104.20216 37106 ft 498 kts 97°
2026-05-05 23:54 45.38031 -104.10431 37106 ft 498 kts 97°
2026-05-05 23:55 45.36915 -104.00791 37108 ft 499 kts 98°
2026-05-05 23:55 45.35779 -103.91058 37105 ft 499 kts 98°
2026-05-05 23:56 45.34634 -103.81318 37101 ft 499 kts 98°
2026-05-05 23:56 45.33482 -103.71595 37088 ft 500 kts 98°
2026-05-05 23:57 45.32319 -103.61850 37115 ft 502 kts 98°
2026-05-05 23:57 45.31141 -103.52061 37095 ft 503 kts 98°
2026-05-05 23:58 45.30147 -103.43852 37094 ft 503 kts 98°
2026-05-05 23:58 45.28956 -103.34087 37090 ft 503 kts 98°
2026-05-05 23:59 45.27762 -103.24368 37087 ft 503 kts 98°
2026-05-05 23:59 45.26551 -103.14582 37091 ft 504 kts 99°
2026-05-06 00:00 45.25330 -103.04788 37085 ft 504 kts 99°
2026-05-06 00:00 45.24103 -102.95013 37084 ft 504 kts 99°
2026-05-06 00:01 45.22864 -102.85218 37077 ft 506 kts 99°
2026-05-06 00:01 45.21610 -102.75377 37086 ft 507 kts 99°
2026-05-06 00:02 45.20348 -102.65541 37081 ft 507 kts 99°
2026-05-06 00:02 45.19082 -102.55742 37079 ft 507 kts 99°
2026-05-06 00:03 45.17802 -102.45903 37082 ft 507 kts 99°
2026-05-06 00:03 45.16515 -102.36087 37085 ft 507 kts 99°
2026-05-06 00:04 45.15223 -102.26290 37078 ft 506 kts 100°
2026-05-06 00:04 45.13919 -102.16485 37077 ft 507 kts 100°
2026-05-06 00:05 45.11949 -102.01782 37073 ft 508 kts 100°
2026-05-06 00:06 45.10626 -101.91977 37079 ft 508 kts 101°
2026-05-06 00:06 45.09294 -101.82161 37070 ft 507 kts 101°
2026-05-06 00:07 45.07973 -101.72352 37068 ft 507 kts 98°
2026-05-06 00:07 45.06254 -101.62752 37062 ft 503 kts 118°
2026-05-06 00:08 45.03325 -101.53767 37017 ft 505 kts 113°
2026-05-06 00:08 45.00759 -101.44522 37058 ft 507 kts 112°
2026-05-06 00:09 44.98262 -101.35191 37061 ft 508 kts 112°
2026-05-06 00:09 44.95784 -101.25870 37055 ft 508 kts 112°
2026-05-06 00:10 44.93290 -101.16529 37052 ft 508 kts 112°
2026-05-06 00:10 44.90789 -101.07197 37050 ft 508 kts 112°
2026-05-06 00:11 44.88280 -100.97871 37045 ft 508 kts 112°
2026-05-06 00:11 44.85806 -100.88713 37025 ft 509 kts 112°
2026-05-06 00:12 44.83274 -100.79375 37045 ft 511 kts 112°
2026-05-06 00:12 44.80731 -100.70034 37041 ft 511 kts 112°
2026-05-06 00:13 44.78180 -100.60699 37038 ft 512 kts 112°
2026-05-06 00:13 44.75616 -100.51354 37037 ft 512 kts 112°
2026-05-06 00:14 44.73045 -100.42013 37030 ft 512 kts 113°
2026-05-06 00:14 44.70463 -100.32673 37020 ft 513 kts 113°
2026-05-06 00:15 44.67867 -100.23322 37031 ft 514 kts 113°
2026-05-06 00:15 44.65261 -100.13965 37028 ft 515 kts 114°
2026-05-06 00:16 44.62643 -100.04605 37031 ft 515 kts 114°
2026-05-06 00:16 44.60025 -99.95277 37028 ft 515 kts 114°
2026-05-06 00:17 44.57393 -99.85939 37036 ft 515 kts 114°
2026-05-06 00:17 44.54759 -99.76624 37029 ft 516 kts 114°
2026-05-06 00:18 44.52100 -99.67262 37037 ft 516 kts 114°
2026-05-06 00:18 44.49443 -99.57938 37034 ft 516 kts 114°
2026-05-06 00:19 44.46773 -99.48605 37028 ft 516 kts 114°
2026-05-06 00:19 44.44095 -99.39279 37042 ft 517 kts 115°
2026-05-06 00:20 44.41411 -99.29964 37032 ft 517 kts 115°
2026-05-06 00:20 44.38714 -99.20643 37031 ft 517 kts 115°
2026-05-06 00:21 44.36012 -99.11337 37040 ft 517 kts 115°
2026-05-06 00:21 44.33302 -99.02041 37033 ft 517 kts 115°
2026-05-06 00:22 44.30588 -98.92764 37039 ft 517 kts 115°
2026-05-06 00:22 44.27860 -98.83473 37033 ft 517 kts 115°
2026-05-06 00:23 44.25122 -98.74180 37047 ft 519 kts 116°
2026-05-06 00:23 44.22370 -98.64878 37035 ft 520 kts 116°
2026-05-06 00:24 44.19605 -98.55565 37039 ft 520 kts 116°
2026-05-06 00:24 44.16834 -98.46263 37038 ft 520 kts 116°
2026-05-06 00:25 44.14056 -98.36975 37040 ft 520 kts 116°
2026-05-06 00:25 44.11270 -98.27692 37004 ft 521 kts 117°
2026-05-06 00:26 44.08455 -98.18350 37042 ft 525 kts 117°
2026-05-06 00:26 44.05630 -98.09007 37030 ft 524 kts 117°
2026-05-06 00:27 44.02801 -97.99685 37031 ft 524 kts 117°
2026-05-06 00:27 43.99956 -97.90345 37031 ft 526 kts 117°
2026-05-06 00:28 43.97096 -97.80986 37034 ft 526 kts 117°
2026-05-06 00:28 43.94226 -97.71631 37028 ft 528 kts 117°
2026-05-06 00:29 43.91341 -97.62263 37038 ft 529 kts 117°
2026-05-06 00:29 43.88442 -97.52879 37039 ft 530 kts 118°
2026-05-06 00:30 43.85524 -97.43472 37028 ft 531 kts 118°
2026-05-06 00:30 43.82610 -97.34111 37019 ft 531 kts 118°
2026-05-06 00:31 43.79679 -97.24728 36977 ft 531 kts 118°
2026-05-06 00:31 43.76741 -97.15346 37020 ft 531 kts 118°
2026-05-06 00:32 43.73803 -97.05997 37012 ft 531 kts 118°
2026-05-06 00:32 43.70851 -96.96635 37022 ft 531 kts 118°
2026-05-06 00:33 43.67894 -96.87290 37024 ft 531 kts 119°
2026-05-06 00:33 43.65220 -96.77760 37006 ft 539 kts 105°
2026-05-06 00:34 43.64368 -96.67427 37010 ft 545 kts 99°
2026-05-06 00:34 43.63574 -96.57000 36995 ft 547 kts 98°
2026-05-06 00:35 43.62836 -96.46563 36983 ft 547 kts 98°
2026-05-06 00:35 43.62096 -96.36128 36993 ft 548 kts 98°
2026-05-06 00:36 43.61345 -96.25668 36988 ft 548 kts 98°
2026-05-06 00:36 43.60711 -96.16967 36992 ft 548 kts 98°
2026-05-06 00:37 43.59942 -96.06522 36987 ft 548 kts 98°
2026-05-06 00:37 43.59164 -95.96083 37016 ft 549 kts 99°
2026-05-06 00:38 43.58373 -95.85614 37009 ft 548 kts 99°
2026-05-06 00:38 43.57574 -95.75155 37009 ft 548 kts 99°
2026-05-06 00:39 43.56767 -95.64714 37009 ft 549 kts 99°
2026-05-06 00:39 43.55947 -95.54245 37005 ft 549 kts 99°
2026-05-06 00:40 43.55117 -95.43766 37011 ft 550 kts 99°
2026-05-06 00:40 43.54281 -95.33327 37000 ft 549 kts 99°
2026-05-06 00:41 43.53430 -95.22840 37000 ft 551 kts 99°
2026-05-06 00:41 43.52569 -95.12342 36990 ft 551 kts 99°
2026-05-06 00:42 43.51702 -95.01890 36945 ft 551 kts 99°
2026-05-06 00:42 43.50821 -94.91385 36964 ft 553 kts 99°
2026-05-06 00:43 43.49928 -94.80865 36962 ft 554 kts 99°
2026-05-06 00:43 43.49026 -94.70340 36961 ft 553 kts 99°
2026-05-06 00:44 43.48114 -94.59831 36984 ft 553 kts 99°
2026-05-06 00:44 43.47191 -94.49304 36979 ft 555 kts 100°
2026-05-06 00:45 43.46257 -94.38758 36973 ft 555 kts 100°
2026-05-06 00:45 43.45315 -94.28239 36973 ft 555 kts 100°
2026-05-06 00:46 43.44361 -94.17696 36962 ft 555 kts 100°
2026-05-06 00:46 43.43397 -94.07150 36969 ft 557 kts 100°
2026-05-06 00:47 43.42422 -93.96605 36960 ft 556 kts 100°
2026-05-06 00:47 43.41438 -93.86056 36960 ft 556 kts 100°
2026-05-06 00:48 43.40443 -93.75500 36946 ft 557 kts 100°
2026-05-06 00:48 43.39445 -93.65025 36953 ft 558 kts 100°
2026-05-06 00:49 43.38422 -93.54388 36956 ft 557 kts 101°
2026-05-06 00:49 43.37402 -93.43892 36908 ft 558 kts 101°
2026-05-06 00:50 43.36362 -93.33290 36933 ft 561 kts 101°
2026-05-06 00:50 43.35314 -93.22708 36932 ft 560 kts 101°
2026-05-06 00:51 43.34253 -93.12105 36938 ft 560 kts 101°
2026-05-06 00:51 43.33183 -93.01499 36925 ft 560 kts 101°
2026-05-06 00:52 43.32104 -92.90915 36930 ft 561 kts 101°
2026-05-06 00:52 43.31011 -92.80298 36931 ft 561 kts 101°
2026-05-06 00:53 43.29910 -92.69693 36934 ft 561 kts 101°
2026-05-06 00:53 43.28800 -92.59109 36936 ft 563 kts 101°
2026-05-06 00:54 43.27674 -92.48456 36934 ft 563 kts 101°
2026-05-06 00:54 43.26538 -92.37819 36933 ft 563 kts 101°
2026-05-06 00:55 43.25396 -92.27211 36920 ft 563 kts 101°
2026-05-06 00:55 43.24238 -92.16560 36925 ft 565 kts 101°
2026-05-06 00:56 43.23074 -92.05910 36925 ft 564 kts 101°
2026-05-06 00:56 43.21900 -91.95257 36921 ft 564 kts 102°
2026-05-06 00:57 43.20719 -91.84641 36874 ft 566 kts 101°
2026-05-06 00:57 43.19520 -91.73942 36909 ft 569 kts 102°
2026-05-06 00:58 43.17791 -91.63481 36887 ft 553 kts 121°
2026-05-06 00:58 43.14495 -91.54016 36896 ft 553 kts 122°
2026-05-06 00:59 43.11232 -91.44573 36924 ft 554 kts 122°
2026-05-06 00:59 43.07927 -91.35042 36905 ft 553 kts 122°
2026-05-06 01:00 43.04632 -91.25561 36904 ft 554 kts 122°
2026-05-06 01:00 43.01337 -91.16067 36872 ft 554 kts 122°
2026-05-06 01:01 42.98019 -91.06552 36933 ft 556 kts 122°
2026-05-06 01:01 42.94698 -90.97054 36903 ft 555 kts 122°
2026-05-06 01:02 42.91363 -90.87557 36919 ft 555 kts 122°
2026-05-06 01:02 42.88021 -90.78065 36908 ft 555 kts 122°
2026-05-06 01:03 42.84671 -90.68591 36908 ft 557 kts 122°
2026-05-06 01:03 42.81294 -90.59071 36907 ft 558 kts 122°
2026-05-06 01:04 42.77915 -90.49581 36905 ft 557 kts 123°
2026-05-06 01:04 42.74525 -90.40089 36889 ft 557 kts 123°
2026-05-06 01:04 42.72836 -90.35372 36701 ft 558 kts 123°
2026-05-06 01:05 42.71134 -90.30625 36413 ft 557 kts 123°
2026-05-06 01:05 42.69448 -90.25943 35993 ft 549 kts 123°
2026-05-06 01:05 42.67763 -90.21290 35381 ft 548 kts 124°
2026-05-06 01:05 42.66071 -90.16628 34386 ft 556 kts 124°
2026-05-06 01:06 42.64341 -90.11868 33078 ft 569 kts 123°
2026-05-06 01:06 42.62620 -90.07112 32653 ft 558 kts 123°
2026-05-06 01:06 42.60912 -90.02415 31803 ft 555 kts 123°
2026-05-06 01:06 42.59205 -89.97744 31205 ft 549 kts 123°
2026-05-06 01:07 42.57520 -89.93130 30597 ft 543 kts 122°
2026-05-06 01:07 42.55854 -89.88570 29877 ft 536 kts 122°
2026-05-06 01:07 42.54200 -89.84058 28962 ft 532 kts 122°
2026-05-06 01:07 42.52629 -89.79530 27996 ft 536 kts 115°
2026-05-06 01:08 42.51714 -89.74651 27512 ft 535 kts 104°
2026-05-06 01:08 42.51011 -89.69739 27046 ft 525 kts 104°
2026-05-06 01:08 42.50358 -89.64914 26642 ft 516 kts 104°
2026-05-06 01:08 42.49743 -89.60158 26285 ft 507 kts 103°
2026-05-06 01:09 42.49156 -89.55485 25959 ft 498 kts 103°
2026-05-06 01:09 42.48589 -89.50896 25606 ft 490 kts 103°
2026-05-06 01:09 42.48041 -89.46453 25264 ft 483 kts 103°
2026-05-06 01:09 42.47493 -89.42017 24911 ft 477 kts 103°
2026-05-06 01:10 42.46953 -89.37618 24573 ft 470 kts 103°
2026-05-06 01:10 42.46413 -89.33212 24138 ft 467 kts 103°
2026-05-06 01:10 42.45881 -89.28893 23738 ft 463 kts 104°
2026-05-06 01:10 42.45351 -89.24602 23285 ft 460 kts 104°
2026-05-06 01:11 42.44830 -89.20403 22823 ft 456 kts 104°
2026-05-06 01:11 42.44298 -89.16129 22359 ft 453 kts 104°
2026-05-06 01:11 42.43781 -89.12001 21898 ft 450 kts 104°
2026-05-06 01:11 42.43255 -89.07871 21457 ft 446 kts 103°
2026-05-06 01:12 42.42727 -89.03688 21000 ft 443 kts 103°
2026-05-06 01:12 42.42212 -88.99583 20575 ft 441 kts 103°
2026-05-06 01:12 42.41699 -88.95506 20162 ft 438 kts 103°
2026-05-06 01:12 42.41195 -88.91525 19853 ft 432 kts 103°
2026-05-06 01:13 42.40683 -88.87502 19642 ft 424 kts 103°
2026-05-06 01:13 42.40192 -88.83661 19330 ft 419 kts 103°
2026-05-06 01:13 42.39695 -88.79787 18945 ft 416 kts 103°
2026-05-06 01:13 42.39205 -88.75974 18708 ft 409 kts 103°
2026-05-06 01:14 42.38229 -88.68416 17883 ft 407 kts 103°
2026-05-06 01:14 42.37741 -88.64663 17326 ft 409 kts 102°
2026-05-06 01:14 42.37248 -88.60880 16783 ft 410 kts 102°
2026-05-06 01:15 42.36751 -88.57075 16247 ft 411 kts 102°
2026-05-06 01:15 42.36251 -88.53259 15700 ft 412 kts 102°
2026-05-06 01:15 42.35749 -88.49433 15134 ft 414 kts 102°
2026-05-06 01:15 42.35244 -88.45589 14581 ft 416 kts 101°
2026-05-06 01:16 42.34736 -88.41753 14040 ft 416 kts 102°
2026-05-06 01:16 42.33821 -88.38088 13419 ft 410 kts 123°
2026-05-06 01:16 42.32162 -88.35015 12882 ft 403 kts 131°
2026-05-06 01:16 42.30487 -88.31991 12327 ft 402 kts 130°
2026-05-06 01:17 42.28697 -88.29115 11775 ft 398 kts 135°
2026-05-06 01:17 42.26893 -88.26294 11238 ft 396 kts 134°
2026-05-06 01:17 42.25716 -88.24435 10905 ft 394 kts 134°
2026-05-06 01:17 42.23376 -88.20709 10511 ft 383 kts 134°
2026-05-06 01:18 42.22224 -88.18867 10345 ft 376 kts 134°
2026-05-06 01:18 42.20579 -88.16234 10100 ft 368 kts 134°
2026-05-06 01:18 42.18886 -88.13778 10047 ft 349 kts 143°
2026-05-06 01:18 42.17073 -88.11760 10043 ft 333 kts 145°
2026-05-06 01:19 42.15331 -88.09788 10035 ft 327 kts 144°
2026-05-06 01:19 42.13598 -88.07795 9996 ft 327 kts 144°
2026-05-06 01:19 42.11874 -88.05794 9987 ft 327 kts 144°
2026-05-06 01:19 42.10231 -88.03667 9980 ft 332 kts 131°
2026-05-06 01:20 42.09262 -88.00873 9980 ft 329 kts 103°
2026-05-06 01:20 42.09174 -87.97862 9992 ft 318 kts 87°
2026-05-06 01:20 42.09212 -87.94918 9995 ft 314 kts 91°
2026-05-06 01:20 42.09205 -87.91973 10010 ft 314 kts 91°
2026-05-06 01:21 42.09200 -87.89025 9859 ft 315 kts 91°
2026-05-06 01:21 42.09197 -87.86078 9533 ft 315 kts 91°
2026-05-06 01:21 42.09193 -87.83148 9186 ft 315 kts 90°
2026-05-06 01:21 42.09189 -87.80218 8932 ft 310 kts 90°
2026-05-06 01:22 42.09186 -87.77337 8704 ft 306 kts 90°
2026-05-06 01:22 42.09182 -87.74490 8480 ft 303 kts 90°
2026-05-06 01:22 42.09177 -87.71661 8266 ft 300 kts 89°
2026-05-06 01:22 42.09178 -87.68875 8070 ft 296 kts 89°
2026-05-06 01:23 42.09171 -87.66121 7846 ft 293 kts 89°
2026-05-06 01:23 42.09152 -87.63397 7628 ft 290 kts 89°
2026-05-06 01:23 42.09126 -87.60686 7411 ft 288 kts 89°
2026-05-06 01:23 42.09092 -87.58008 7215 ft 285 kts 89°
2026-05-06 01:24 42.09051 -87.55362 7083 ft 281 kts 89°
2026-05-06 01:24 42.09005 -87.52741 6925 ft 278 kts 89°
2026-05-06 01:24 42.08953 -87.50196 6741 ft 272 kts 89°
2026-05-06 01:24 42.08618 -87.47726 6502 ft 269 kts 114°
2026-05-06 01:25 42.07406 -87.45877 6272 ft 264 kts 149°
2026-05-06 01:25 42.05669 -87.45232 6048 ft 259 kts 180°
2026-05-06 01:25 42.03879 -87.45313 5872 ft 257 kts 185°
2026-05-06 01:25 42.02106 -87.45476 5709 ft 256 kts 188°
2026-05-06 01:26 42.00446 -87.46219 5497 ft 250 kts 215°
2026-05-06 01:26 41.99265 -87.47819 5319 ft 237 kts 243°
2026-05-06 01:26 41.98813 -87.49858 5152 ft 223 kts 270°
2026-05-06 01:26 41.98826 -87.51900 5031 ft 216 kts 272°
2026-05-06 01:27 41.98827 -87.53913 4890 ft 215 kts 271°
2026-05-06 01:27 41.98825 -87.55918 4752 ft 214 kts 271°
2026-05-06 01:27 41.98824 -87.57905 4600 ft 213 kts 271°
2026-05-06 01:27 41.98825 -87.59895 4446 ft 212 kts 271°
2026-05-06 01:28 41.98826 -87.61865 4298 ft 207 kts 271°
2026-05-06 01:28 41.98826 -87.63770 4145 ft 201 kts 271°
2026-05-06 01:28 41.98827 -87.65622 3985 ft 196 kts 271°
2026-05-06 01:28 41.98828 -87.67426 3757 ft 194 kts 271°
2026-05-06 01:29 41.98828 -87.69156 3528 ft 176 kts 271°
2026-05-06 01:29 41.98829 -87.70717 3309 ft 162 kts 272°
2026-05-06 01:29 41.98830 -87.72225 3099 ft 158 kts 273°
2026-05-06 01:29 41.98830 -87.73654 2921 ft 153 kts 272°
2026-05-06 01:30 41.98830 -87.75078 2700 ft 152 kts 273°
2026-05-06 01:30 41.98832 -87.76492 2501 ft 151 kts 273°
2026-05-06 01:30 41.98831 -87.77897 2320 ft 151 kts 272°
2026-05-06 01:30 41.98832 -87.79299 2094 ft 149 kts 272°
2026-05-06 01:31 41.98832 -87.80682 1888 ft 145 kts 272°
2026-05-06 01:31 41.98832 -87.82030 1695 ft 144 kts 272°
2026-05-06 01:31 41.98833 -87.83375 1506 ft 145 kts 271°
2026-05-06 01:31 41.98833 -87.84741 1296 ft 147 kts 271°
2026-05-06 01:32 41.98829 -87.86109 1109 ft 146 kts 270°
2026-05-06 01:32 41.98831 -87.87475 936 ft 144 kts 271°
2026-05-06 01:32 41.98826 -87.88807 763 ft 144 kts 271°
2026-05-06 01:32 41.98828 -87.90090 673 ft 126 kts 272°
2026-05-06 01:33 41.98832 -87.90947 672 ft 45 kts 269°
2026-05-06 01:33 41.98825 -87.91344 669 ft 36 kts 262°
2026-05-06 01:33 41.98758 -87.91554 668 ft 16 kts 237°
2026-05-06 01:33 41.98687 -87.91566 672 ft 11 kts 122°
2026-05-06 01:34 41.98682 -87.91454 672 ft 13 kts 90°
2026-05-06 01:34 41.98682 -87.91307 672 ft 21 kts 90°
2026-05-06 01:34 41.98682 -87.91085 672 ft 24 kts 90°
2026-05-06 01:34 41.98682 -87.90872 671 ft 23 kts 90°
2026-05-06 01:35 41.98682 -87.90648 672 ft 25 kts 90°
2026-05-06 01:35 41.98682 -87.90410 673 ft 26 kts 90°
2026-05-06 01:35 41.98682 -87.90176 672 ft 20 kts 90°
2026-05-06 01:35 41.98646 -87.90048 672 ft 13 kts 163°
2026-05-06 01:36 41.98551 -87.90040 672 ft 15 kts 180°
2026-05-06 01:36 41.98437 -87.90040 671 ft 18 kts 180°
2026-05-06 01:36 41.98335 -87.90040 671 ft 11 kts 180°
2026-05-06 01:36 41.98291 -87.90108 671 ft 11 kts 262°
2026-05-06 01:37 41.98290 -87.90226 671 ft 14 kts 270°
2026-05-06 01:37 41.98290 -87.90366 671 ft 16 kts 270°
2026-05-06 01:37 41.98290 -87.90529 670 ft 19 kts 270°
2026-05-06 01:37 41.98283 -87.90714 669 ft 20 kts 260°
2026-05-06 01:38 41.98241 -87.90901 672 ft 22 kts 244°
2026-05-06 01:38 41.98170 -87.91064 673 ft 19 kts 234°
2026-05-06 01:38 41.98072 -87.91169 671 ft 17 kts 211°
2026-05-06 01:38 41.97995 -87.91181 673 ft 7 kts 136°
2026-05-06 01:39 41.97974 -87.91142 673 ft 6 kts 125°
2026-05-06 01:39 41.97953 -87.91100 672 ft 2 kts 123°